Weather History for Coatesville, PA

Change the Weather History Date:

Sunday, February 17, 2013

  Actual Average (KLNS) Record (KLNS)
Temperature  
Mean Temperature 28 °F -  
Max Temperature 32 °F 40 °F 61 °F (2011)
Min Temperature 21 °F 23 °F 0 °F (1979)
Degree Days  
Heating Degree Days 38    
Moisture  
Dew Point 10 °F    
Average Humidity 50    
Maximum Humidity 74    
Minimum Humidity 34    
Precipitation  
Precipitation 0.23 in - - ()
Sea Level Pressure  
Sea Level Pressure 29.87 in    
Wind  
Wind Speed 15 mph (NW)    
Max Wind Speed 33 mph    
Max Gust Speed 40 mph    
Visibility 10 miles    
Events Snow    
Averages and records for this station are not official NWS values.
T = Trace of Precipitation, MM = Missing Value Source: NWS Daily Summary

Daily Weather History Graph

Daily Weather History Graph

Search for Another Location

Airport:

Trip Planner

Search our weather history database for the weather conditions in past years. The results will help you decide how hot, cold, wet, or windy it might be!

Date:

Astronomy

Feb. 17, 2013 Rise Set
Actual Time 6:53 AM EST 5:42 PM EST
Civil Twilight 6:25 AM EST 6:09 PM EST
Nautical Twilight 5:54 AM EST 6:41 PM EST
Astronomical Twilight 5:22 AM EST 7:12 PM EST
Moon 10:45 AM EST (2/17) 12:35 AM EST (2/17)
Length of Visible Light 11h 43m
Length of Day
10h 48m
Waxing Crescent, 49% of the Moon is Illuminated
Feb 17
Waxing Crescent
Feb 17
First Quarter
Feb 25
Full
Mar 4
Last Quarter
Mar 11
New

Hourly Weather History & Observations

Time (EST) Temp. Windchill Dew Point Humidity Pressure Visibility Wind Dir Wind Speed Gust Speed Precip Events Conditions
12:15 AM 30.2 °F 20.8 °F 14.0 °F 51% 29.79 in 10.0 mi North 11.5 mph 17.3 mph N/A   Clear
12:35 AM 30.2 °F 20.8 °F 14.0 °F 51% 29.78 in 10.0 mi North 11.5 mph 16.1 mph N/A   Clear
12:55 AM 28.4 °F 17.5 °F 14.0 °F 55% 29.78 in 10.0 mi North 13.8 mph 21.9 mph N/A   Clear
1:15 AM 28.4 °F 18.0 °F 14.0 °F 55% 29.78 in 10.0 mi NNW 12.7 mph - N/A   Clear
1:35 AM 28.4 °F 19.1 °F 12.2 °F 51% 29.78 in 10.0 mi NNW 10.4 mph 20.7 mph N/A   Clear
1:55 AM 28.4 °F 18.0 °F 12.2 °F 51% 29.78 in 10.0 mi NNW 12.7 mph - N/A   Clear
2:15 AM 28.4 °F 17.5 °F 12.2 °F 51% 29.78 in 10.0 mi North 13.8 mph 18.4 mph N/A   Clear
2:35 AM 28.4 °F 18.0 °F 10.4 °F 47% 29.77 in 10.0 mi NNW 12.7 mph 21.9 mph N/A   Clear
2:55 AM 28.4 °F 17.0 °F 10.4 °F 47% 29.77 in 10.0 mi NNW 15.0 mph 23.0 mph N/A   Clear
3:15 AM 28.4 °F 18.5 °F 10.4 °F 47% 29.77 in 10.0 mi NNW 11.5 mph 20.7 mph N/A   Clear
3:35 AM 28.4 °F 19.1 °F 12.2 °F 51% 29.77 in 10.0 mi NNW 10.4 mph 16.1 mph N/A   Clear
3:55 AM 26.6 °F 16.8 °F 12.2 °F 55% 29.77 in 10.0 mi NNW 10.4 mph - N/A   Clear
4:15 AM 26.6 °F 17.5 °F 12.2 °F 55% 29.78 in 10.0 mi NNW 9.2 mph 16.1 mph N/A   Clear
4:35 AM 26.6 °F 16.2 °F 12.2 °F 55% 29.78 in 10.0 mi NW 11.5 mph - N/A   Clear
4:55 AM 26.6 °F 16.2 °F 12.2 °F 55% 29.78 in 10.0 mi NW 11.5 mph 17.3 mph N/A   Clear
5:15 AM 26.6 °F 15.2 °F 12.2 °F 55% 29.78 in 10.0 mi NW 13.8 mph - N/A   Clear
5:35 AM 26.6 °F 15.2 °F 12.2 °F 55% 29.78 in 10.0 mi NW 13.8 mph - N/A   Clear
5:55 AM 26.6 °F 15.2 °F 12.2 °F 55% 29.78 in 10.0 mi NW 13.8 mph 19.6 mph N/A   Clear
6:15 AM 24.8 °F 13.4 °F 12.2 °F 59% 29.78 in 10.0 mi NW 12.7 mph - N/A   Clear
6:55 AM 24.8 °F 14.0 °F 12.2 °F 59% 29.79 in 10.0 mi NW 11.5 mph - N/A   Clear
7:15 AM 24.8 °F 14.0 °F 12.2 °F 59% 29.80 in 10.0 mi NW 11.5 mph 20.7 mph N/A   Clear
7:35 AM 24.8 °F 14.0 °F 14.0 °F 64% 29.80 in 10.0 mi NW 11.5 mph - N/A   Clear
7:55 AM 26.6 °F 16.8 °F 14.0 °F 59% 29.81 in 10.0 mi NW 10.4 mph 19.6 mph N/A   Clear
8:15 AM 26.6 °F 16.8 °F 14.0 °F 59% 29.81 in 10.0 mi NW 10.4 mph - N/A   Clear
8:35 AM 28.4 °F 16.6 °F 15.8 °F 59% 29.82 in 10.0 mi NW 16.1 mph - N/A   Partly Cloudy
8:55 AM 28.4 °F 17.5 °F 14.0 °F 55% 29.82 in 10.0 mi NW 13.8 mph 19.6 mph N/A   Scattered Clouds
9:15 AM 28.4 °F 17.5 °F 14.0 °F 55% 29.82 in 10.0 mi NW 13.8 mph - N/A   Scattered Clouds
9:35 AM 28.4 °F 16.6 °F 12.2 °F 51% 29.82 in 10.0 mi NNW 16.1 mph 24.2 mph N/A   Partly Cloudy
9:55 AM 28.4 °F 17.0 °F 12.2 °F 51% 29.82 in 10.0 mi NNW 15.0 mph 21.9 mph N/A   Partly Cloudy
10:15 AM 28.4 °F 15.8 °F 12.2 °F 51% 29.83 in 10.0 mi NW 18.4 mph 28.8 mph N/A   Scattered Clouds
10:35 AM 28.4 °F 15.4 °F 12.2 °F 51% 29.84 in 10.0 mi NW 19.6 mph 25.3 mph N/A   Mostly Cloudy
10:55 AM 28.4 °F 15.4 °F 12.2 °F 51% 29.84 in 10.0 mi NW 19.6 mph 27.6 mph N/A   Mostly Cloudy
11:15 AM 30.2 °F 17.1 °F 12.2 °F 47% 29.84 in 10.0 mi NW 21.9 mph 26.5 mph N/A   Mostly Cloudy
11:35 AM 28.4 °F 15.8 °F 12.2 °F 51% 29.85 in 10.0 mi NW 18.4 mph 28.8 mph N/A   Mostly Cloudy
11:55 AM 30.2 °F 17.8 °F 12.2 °F 47% 29.85 in 10.0 mi NW 19.6 mph 28.8 mph N/A   Scattered Clouds
12:15 PM 30.2 °F 17.4 °F 12.2 °F 47% 29.84 in 10.0 mi NW 20.7 mph 33.4 mph N/A Snow Light Snow
12:35 PM 28.4 °F 15.8 °F 14.0 °F 55% 29.84 in 7.0 mi NW 18.4 mph 25.3 mph N/A   Mostly Cloudy
12:55 PM 28.4 °F 16.6 °F 12.2 °F 51% 29.84 in 10.0 mi NNW 16.1 mph 24.2 mph N/A   Mostly Cloudy
1:15 PM 32.0 °F 19.2 °F 12.2 °F 44% 29.84 in 10.0 mi NW 23.0 mph 31.1 mph N/A   Scattered Clouds
1:55 PM 30.2 °F 17.4 °F 10.4 °F 44% 29.85 in 10.0 mi NW 20.7 mph 25.3 mph N/A   Mostly Cloudy
2:15 PM 32.0 °F 19.8 °F 12.2 °F 44% 29.84 in 10.0 mi NW 20.7 mph 29.9 mph N/A   Mostly Cloudy
2:35 PM 30.2 °F 17.1 °F 17.6 °F 60% 29.85 in 5.0 mi NW 21.9 mph 32.2 mph 0.01 in   Haze
2:55 PM 28.4 °F 16.6 °F 14.0 °F 55% 29.86 in 10.0 mi NW 16.1 mph 24.2 mph 0.01 in Snow Light Snow
3:15 PM 26.6 °F 15.2 °F 19.4 °F 74% 29.87 in 2.0 mi NNW 13.8 mph 24.2 mph 0.03 in Snow Light Snow
3:35 PM 28.4 °F 15.8 °F 19.4 °F 69% 29.87 in 10.0 mi NNW 18.4 mph 25.3 mph 0.04 in Snow Light Snow
3:55 PM 26.6 °F 12.7 °F 19.4 °F 74% 29.87 in 1.8 mi WNW 20.7 mph 25.3 mph 0.22 in   Haze
4:15 PM 28.4 °F 15.4 °F 15.8 °F 59% 29.87 in 8.0 mi NW 19.6 mph 28.8 mph N/A   Mostly Cloudy
4:35 PM 28.4 °F 15.1 °F 10.4 °F 47% 29.88 in 7.0 mi NW 20.7 mph 33.4 mph N/A   Scattered Clouds
4:55 PM 28.4 °F 15.4 °F 6.8 °F 40% 29.89 in 10.0 mi WNW 19.6 mph 28.8 mph N/A   Scattered Clouds
5:15 PM 28.4 °F 16.6 °F 6.8 °F 40% 29.90 in 10.0 mi NW 16.1 mph 27.6 mph N/A   Scattered Clouds
5:35 PM 28.4 °F 14.4 °F 3.2 °F 34% 29.91 in 10.0 mi NW 23.0 mph 38.0 mph N/A   Partly Cloudy
5:55 PM 28.4 °F 13.8 °F 5.0 °F 37% 29.92 in 10.0 mi NW 25.3 mph 35.7 mph N/A   Partly Cloudy
6:15 PM 26.6 °F 11.7 °F 5.0 °F 40% 29.94 in 10.0 mi NW 24.2 mph 35.7 mph N/A   Scattered Clouds
6:35 PM 26.6 °F 10.8 °F 3.2 °F 37% 29.95 in 10.0 mi NW 27.6 mph 34.5 mph N/A   Partly Cloudy
6:55 PM 26.6 °F 11.4 °F 5.0 °F 40% 29.96 in 10.0 mi NW 25.3 mph 32.2 mph N/A   Partly Cloudy
7:15 PM 26.6 °F 13.1 °F 3.2 °F 37% 29.97 in 10.0 mi NW 19.6 mph 25.3 mph N/A   Scattered Clouds
7:35 PM 26.6 °F 12.7 °F 3.2 °F 37% 29.98 in 10.0 mi NW 20.7 mph 28.8 mph N/A   Clear
7:55 PM 26.6 °F 12.4 °F 3.2 °F 37% 29.99 in 10.0 mi NW 21.9 mph 27.6 mph N/A   Partly Cloudy
8:15 PM 24.8 °F 10.7 °F 3.2 °F 40% 30.00 in 10.0 mi NW 19.6 mph 34.5 mph N/A   Clear
8:35 PM 24.8 °F 9.6 °F 3.2 °F 40% 30.01 in 10.0 mi NW 23.0 mph 34.5 mph N/A   Scattered Clouds
8:55 PM 24.8 °F 7.1 °F 3.2 °F 40% 30.02 in 10.0 mi NW 33.4 mph 40.3 mph N/A   Partly Cloudy
9:15 PM 23.0 °F 6.6 °F 3.2 °F 43% 30.03 in 10.0 mi NW 25.3 mph 38.0 mph N/A   Clear
9:35 PM 23.0 °F 8.0 °F 3.2 °F 43% 30.04 in 10.0 mi NW 20.7 mph 40.3 mph N/A   Clear
9:55 PM 23.0 °F 7.6 °F 3.2 °F 43% 30.05 in 10.0 mi NW 21.9 mph 32.2 mph N/A   Partly Cloudy
10:15 PM 23.0 °F 7.6 °F 3.2 °F 43% 30.06 in 10.0 mi NW 21.9 mph 31.1 mph N/A   Partly Cloudy
10:35 PM 23.0 °F 5.4 °F 3.2 °F 43% 30.07 in 10.0 mi NW 29.9 mph 39.1 mph N/A   Clear
10:55 PM 23.0 °F 6.3 °F 3.2 °F 43% 30.08 in 10.0 mi NW 26.5 mph 32.2 mph N/A   Partly Cloudy
11:15 PM 23.0 °F 8.0 °F 3.2 °F 43% 30.09 in 10.0 mi NW 20.7 mph 32.2 mph N/A   Partly Cloudy
11:35 PM 23.0 °F 6.9 °F 3.2 °F 43% 30.09 in 10.0 mi NW 24.2 mph 28.8 mph N/A   Scattered Clouds
11:55 PM 21.2 °F 4.9 °F 3.2 °F 46% 30.10 in 10.0 mi NW 23.0 mph 29.9 mph N/A   Scattered Clouds